Location: Spruce Knob
(38.6995°N, 79.5330°W)
Time: 16:24:56
(UTC-04:00)

ITUPSAT 1 - Visible Passes

Search period start: 30 March 2023 00:00
Search period end: 09 April 2023 00:00
Orbit: 699 x 709 km, 98.5° (Epoch: 29 March)

Date Brightness Start Highest point End Pass type
(mag) Time Alt. Az. Time Alt. Az. Time Alt. Az.
30 Mar ? 22:41:52 10° N 22:43:16 19° N 22:43:16 19° N visible
31 Mar ? 21:47:48 10° NNE 21:48:21 13° NE 21:48:21 13° NE visible
31 Mar ? 23:25:53 10° NNW 23:27:17 16° NNW 23:27:17 16° NNW visible
01 Apr ? 22:30:46 10° NNE 22:32:22 21° NNE 22:32:22 21° NNE visible
02 Apr ? 21:37:01 10° NE 21:37:26 12° NE 21:37:26 12° NE visible
02 Apr ? 23:14:32 10° N 23:16:22 20° NNW 23:16:22 20° NNW visible
03 Apr ? 22:19:42 10° NNE 22:21:26 22° NNE 22:21:26 22° NNE visible
03 Apr ? 23:59:48 10° NW 00:00:21 11° NW 00:00:21 11° NW visible
04 Apr ? 21:26:21 10° NE 21:26:30 11° NE 21:26:30 11° NE visible
04 Apr ? 23:03:15 10° N 23:05:25 24° NNW 23:05:25 24° NNW visible
05 Apr ? 22:08:41 10° NNE 22:10:29 22° NNE 22:10:29 22° NNE visible
05 Apr ? 23:47:52 10° NNW 23:49:25 14° NW 23:49:25 14° NW visible
06 Apr ? 22:52:01 10° N 22:54:28 29° N 22:54:28 29° N visible
07 Apr ? 21:57:42 10° NNE 21:59:31 21° NE 21:59:31 21° NE visible
07 Apr ? 23:36:14 10° NNW 23:38:27 18° NW 23:38:27 18° NW visible
08 Apr ? 22:40:49 10° N 22:43:29 33° N 22:43:29 33° N visible
